This is the latest recevied weather packets stored in our database for station/object W0AVQ. If no packets are shown the sender has not sent any weather packets the latest 10 day(s).
| Time | Temp. | Humidity | Pressure | Rain* | Wind** | Luminosity | Snow |
|---|---|---|---|---|---|---|---|
| 1778034789 | 10° C | 99% | 1010.8 hPa | 1.27 mm | - | 0 W/m² | - |
| 1778034486 | 10° C | 99% | 1010.8 hPa | 1.27 mm | - | 0 W/m² | - |
| 1778034184 | 10° C | 99% | 1011.1 hPa | 0 mm | - | 0 W/m² | - |
| 1778033882 | 10° C | 99% | 1010.5 hPa | 1.78 mm | - | 0 W/m² | - |
| 1778033578 | 10° C | 99% | 1010.6 hPa | 1.78 mm | - | 0 W/m² | - |
| 1778033275 | 10° C | 99% | 1010.5 hPa | 0 mm | - | 0 W/m² | - |
| 1778032973 | 10° C | 99% | 1010.1 hPa | 0 mm | - | 0 W/m² | - |
| 1778032670 | 10° C | 99% | 1010.2 hPa | 0 mm | - | 0 W/m² | - |
| 1778032368 | 10° C | 99% | 1010.2 hPa | 0 mm | - | 0 W/m² | - |
| 1778032064 | 10° C | 99% | 1010 hPa | 0 mm | - | 0 W/m² | - |
| 1778031761 | 10° C | 99% | 1010.2 hPa | 84.07 mm | - | 0 W/m² | - |
| 1778031458 | 10° C | 99% | 1010.1 hPa | 84.07 mm | - | 0 W/m² | - |
| 1778031155 | 10° C | 99% | 1010 hPa | 0 mm | - | 0 W/m² | - |
| 1778030851 | 10° C | 99% | 1009.9 hPa | 0 mm | - | 0 W/m² | - |
| 1778030548 | 10.56° C | 99% | 1009.4 hPa | 0 mm | - | 0 W/m² | - |
| 1778030246 | 10.56° C | 99% | 1009.4 hPa | 0 mm | - | 0 W/m² | - |
| 1778029941 | 10.56° C | 99% | 1009.7 hPa | 0 mm | - | 0 W/m² | - |
| 1778029640 | 10.56° C | 99% | 1009.4 hPa | 0 mm | - | 0 W/m² | - |
| 1778029337 | 10.56° C | 99% | 1009.3 hPa | 0 mm | - | 0 W/m² | - |
| 1778029035 | 10.56° C | 99% | 1009.1 hPa | 0 mm | - | 0 W/m² | - |
| 1778028731 | 11.11° C | 99% | 1009.2 hPa | 1.27 mm | - | 0 W/m² | - |
| 1778028427 | 11.67° C | 99% | 1009.1 hPa | 1.27 mm | - | 0 W/m² | - |
| 1778028125 | 11.11° C | 99% | 1009.4 hPa | 0 mm | - | 0 W/m² | - |
| 1778027820 | 11.11° C | 99% | 1008.9 hPa | 0 mm | - | 0 W/m² | - |
| 1778027517 | 11.11° C | 99% | 1008.8 hPa | 0 mm | - | 0 W/m² | - |
* Rain latest hour (hover to see other rain measurements)
** Current wind speed in m/s (hover to see current wind gust speed)